Lancaster, OH

5:23 AM EDT on October 18, 2017 (GMT -0400)
Fairfield County

Weather History for KLHQ - January, 2012

Change the Weather History Date:

Saturday, January 28, 2012

  Actual Average Record
Temperature  
Mean Temperature 34 °F -  
Max Temperature 39 °F 35 °F 66 °F (2002)
Min Temperature 28 °F 15 °F -19 °F (1948)
Degree Days  
Heating Degree Days 32    
Moisture  
Dew Point 26 °F    
Average Humidity 71    
Maximum Humidity 89    
Minimum Humidity 38    
Precipitation  
Precipitation 0.02 in - - ()
Sea Level Pressure  
Sea Level Pressure 30.06 in    
Wind  
Wind Speed 9 mph (SW)    
Max Wind Speed 29 mph    
Max Gust Speed 38 mph    
Visibility 8 miles    
Events      
Averages and records for this station are not official NWS values.
T = Trace of Precipitation, MM = Missing Value Source: NWS Daily Summary

Daily Weather History Graph

Daily Weather History Graph

Search for Another Location

Airport or City:

Trip Planner

Search our weather history database for the weather conditions in past years. The results will help you decide how hot, cold, wet, or windy it might be!

Date:

Astronomy

Jan. 28, 2012 Rise Set
Actual Time 7:42 AM EST 5:44 PM EST
Civil Twilight 7:13 AM EST 6:13 PM EST
Nautical Twilight 6:41 AM EST 6:46 PM EST
Astronomical Twilight 6:09 AM EST 7:18 PM EST
Moon 10:05 AM EST (1/28) 11:31 PM EST (1/28)
Length of Visible Light 11h 00m
Length of Day
10h 02m
Waxing Crescent, 27% of the Moon is Illuminated
Jan 28
Waxing Crescent
Jan 30
First Quarter
Feb 7
Full
Feb 14
Last Quarter
Feb 21
New

Hourly Weather History & Observations

Time (EST) Temp. Windchill Dew Point Humidity Pressure Visibility Wind Dir Wind Speed Gust Speed Precip Events Conditions
12:53 AM 33.1 °F 28.7 °F 28.9 °F 85% 30.03 in 7.0 mi South 4.6 mph - N/A   Overcast
1:10 AM 33.8 °F 29.6 °F 28.4 °F 81% 30.01 in 6.0 mi SSW 4.6 mph - N/A   Haze
1:29 AM 33.8 °F 30.8 °F 28.4 °F 81% 30.00 in 6.0 mi SSW 3.5 mph - N/A   Haze
1:53 AM 33.1 °F - 28.0 °F 82% 30.01 in 6.0 mi Calm Calm - N/A   Haze
2:53 AM 33.1 °F 30.0 °F 28.0 °F 82% 30.00 in 6.0 mi South 3.5 mph - N/A   Haze
3:53 AM 33.1 °F 30.0 °F 28.9 °F 85% 30.01 in 6.0 mi South 3.5 mph - N/A   Overcast
4:53 AM 34.0 °F 28.8 °F 28.9 °F 82% 29.99 in 7.0 mi South 5.8 mph - N/A   Overcast
5:53 AM 34.0 °F 28.8 °F 30.0 °F 85% 29.97 in 7.0 mi South 5.8 mph - N/A   Overcast
6:44 AM 33.8 °F 28.6 °F 30.2 °F 87% 29.92 in 7.0 mi SSE 5.8 mph - N/A   Overcast
6:53 AM 34.0 °F 28.0 °F 30.0 °F 85% 29.95 in 7.0 mi South 6.9 mph - N/A   Overcast
7:01 AM 35.6 °F 30.7 °F 30.2 °F 81% 29.92 in 7.0 mi South 5.8 mph - N/A   Overcast
7:53 AM 35.1 °F 27.9 °F 30.9 °F 85% 29.94 in 7.0 mi South 9.2 mph - N/A   Overcast
8:53 AM 36.0 °F 29.0 °F 32.0 °F 86% 29.93 in 5.0 mi SSW 9.2 mph - N/A   Overcast
9:53 AM 37.0 °F 28.9 °F 34.0 °F 89% 29.94 in 4.0 mi SW 12.7 mph - 0.02 in   Overcast
10:02 AM 37.4 °F 28.9 °F 33.8 °F 87% 29.92 in 4.0 mi SW 13.8 mph - 0.00 in   Overcast
10:53 AM 37.9 °F 27.3 °F 33.1 °F 83% 29.98 in 8.0 mi West 21.9 mph 34.5 mph 0.00 in   Overcast
11:53 AM 37.0 °F 27.4 °F 30.9 °F 79% 30.02 in 10.0 mi West 17.3 mph 27.6 mph N/A   Overcast
12:06 PM 37.4 °F 25.2 °F 28.4 °F 70% 30.01 in 10.0 mi West 28.8 mph 38.0 mph N/A   Mostly Cloudy
12:53 PM 37.0 °F 26.7 °F 26.1 °F 65% 30.05 in 10.0 mi West 19.6 mph 38.0 mph N/A   Mostly Cloudy
1:53 PM 37.9 °F 28.9 °F 24.1 °F 57% 30.07 in 10.0 mi West 16.1 mph 34.5 mph N/A   Partly Cloudy
2:53 PM 39.0 °F 28.5 °F 17.1 °F 41% 30.11 in 10.0 mi West 23.0 mph 36.8 mph N/A   Clear
3:53 PM 39.0 °F 28.3 °F 15.1 °F 38% 30.15 in 10.0 mi West 24.2 mph 36.8 mph N/A   Clear
4:53 PM 37.0 °F 27.4 °F 17.1 °F 44% 30.18 in 10.0 mi West 17.3 mph 28.8 mph N/A   Clear
5:53 PM 35.1 °F 24.8 °F 17.1 °F 48% 30.20 in 10.0 mi West 17.3 mph 26.5 mph N/A   Clear
6:53 PM 33.1 °F 24.4 °F 18.0 °F 54% 30.23 in 10.0 mi West 11.5 mph 18.4 mph N/A   Clear
7:53 PM 32.0 °F 24.2 °F 19.0 °F 59% 30.25 in 10.0 mi WSW 9.2 mph - N/A   Clear
8:53 PM 32.0 °F 23.6 °F 18.0 °F 56% 30.26 in 10.0 mi WSW 10.4 mph - N/A   Clear
9:53 PM 30.9 °F 22.8 °F 18.0 °F 59% 30.25 in 10.0 mi WSW 9.2 mph - N/A   Clear
10:53 PM 28.9 °F 21.9 °F 17.1 °F 61% 30.25 in 10.0 mi SW 6.9 mph - N/A   Clear
11:53 PM 28.9 °F 22.8 °F 18.0 °F 64% 30.24 in 10.0 mi SW 5.8 mph - N/A   Clear